Time,TemperatureF,DewpointF,PressureIn,WindDirection,WindDirectionDegrees,WindSpeedMPH,WindSpeedGustMPH,Humidity,HourlyPrecipIn,Conditions,Clouds,dailyrainin,SoftwareType,DateUTC
2013-02-25 00:04:00,43.2,35.0,30.05,East,86,0.0,-999.0,74,-99.99,,,0.01,weatherlink.com 1.10,2013-02-25 06:04:00,
2013-02-25 00:19:00,42.9,34.0,30.04,East,86,3.0,-999.0,72,-99.99,,,0.01,weatherlink.com 1.10,2013-02-25 06:19:00,
2013-02-25 00:35:00,43.1,34.0,30.03,East,86,3.0,-999.0,71,-99.99,,,0.01,weatherlink.com 1.10,2013-02-25 06:35:00,
2013-02-25 00:50:00,43.3,34.0,30.03,East,92,4.0,-999.0,70,-99.99,,,0.01,weatherlink.com 1.10,2013-02-25 06:50:00,
2013-02-25 01:05:00,43.4,34.0,30.03,East,89,3.0,-999.0,70,-99.99,,,0.01,weatherlink.com 1.10,2013-02-25 07:05:00,
2013-02-25 01:20:00,43.8,33.0,30.03,East,85,4.0,-999.0,67,-99.99,,,0.01,weatherlink.com 1.10,2013-02-25 07:20:00,
2013-02-25 01:35:00,43.8,33.0,30.04,East,85,1.0,-999.0,67,-99.99,,,0.01,weatherlink.com 1.10,2013-02-25 07:35:00,
2013-02-25 01:50:00,43.2,33.0,30.02,East,85,2.0,-999.0,68,-99.99,,,0.01,weatherlink.com 1.10,2013-02-25 07:50:00,
2013-02-25 02:05:00,43.8,33.0,30.01,East,92,6.0,-999.0,66,-99.99,,,0.01,weatherlink.com 1.10,2013-02-25 08:05:00,
2013-02-25 02:20:00,43.5,33.0,30.01,ENE,76,3.0,-999.0,67,-99.99,,,0.01,weatherlink.com 1.10,2013-02-25 08:20:00,
2013-02-25 02:35:00,43.6,33.0,30.02,ESE,110,4.0,-999.0,66,-99.99,,,0.01,weatherlink.com 1.10,2013-02-25 08:35:00,
2013-02-25 02:50:00,43.1,33.0,30.00,East,94,4.0,-999.0,68,-99.99,,,0.01,weatherlink.com 1.10,2013-02-25 08:50:00,
2013-02-25 03:05:00,43.1,32.0,30.01,NNE,29,2.0,-999.0,66,-99.99,,,0.01,weatherlink.com 1.10,2013-02-25 09:05:00,
2013-02-25 03:20:00,43.2,32.0,30.00,East,84,1.0,-999.0,66,-99.99,,,0.01,weatherlink.com 1.10,2013-02-25 09:20:00,
2013-02-25 03:35:00,42.8,33.0,30.00,East,96,2.0,-999.0,68,-99.99,,,0.01,weatherlink.com 1.10,2013-02-25 09:35:00,
2013-02-25 03:50:00,42.6,32.0,29.99,ENE,67,1.0,-999.0,67,-99.99,,,0.01,weatherlink.com 1.10,2013-02-25 09:50:00,
2013-02-25 04:05:00,42.6,32.0,29.99,East,87,2.0,-999.0,67,-99.99,,,0.01,weatherlink.com 1.10,2013-02-25 10:05:00,
2013-02-25 04:20:00,42.2,32.0,29.99,ENE,67,2.0,-999.0,68,-99.99,,,0.01,weatherlink.com 1.10,2013-02-25 10:20:00,
2013-02-25 04:35:00,42.1,32.0,29.98,East,81,3.0,-999.0,68,-99.99,,,0.01,weatherlink.com 1.10,2013-02-25 10:35:00,
2013-02-25 04:50:00,42.0,32.0,29.99,ENE,73,2.0,-999.0,68,-99.99,,,0.01,weatherlink.com 1.10,2013-02-25 10:50:00,
2013-02-25 05:05:00,42.1,32.0,29.99,ENE,68,2.0,-999.0,67,-99.99,,,0.01,weatherlink.com 1.10,2013-02-25 11:05:00,
2013-02-25 05:20:00,41.9,32.0,30.00,ESE,112,2.0,-999.0,68,-99.99,,,0.01,weatherlink.com 1.10,2013-02-25 11:20:00,
2013-02-25 05:35:00,41.8,32.0,30.01,East,98,0.0,-999.0,69,-99.99,,,0.01,weatherlink.com 1.10,2013-02-25 11:35:00,
2013-02-25 05:50:00,41.6,32.0,30.02,NE,47,1.0,-999.0,69,-99.99,,,0.01,weatherlink.com 1.10,2013-02-25 11:50:00,
2013-02-25 06:05:00,41.8,32.0,30.02,ENE,67,2.0,-999.0,68,-99.99,,,0.01,weatherlink.com 1.10,2013-02-25 12:05:00,
2013-02-25 06:20:00,42.0,32.0,30.01,East,86,4.0,-999.0,67,-99.99,,,0.01,weatherlink.com 1.10,2013-02-25 12:20:00,
2013-02-25 06:35:00,42.2,32.0,30.02,East,92,6.0,-999.0,67,-99.99,,,0.01,weatherlink.com 1.10,2013-02-25 12:35:00,
2013-02-25 06:50:00,42.3,32.0,30.01,ESE,102,6.0,-999.0,66,-99.99,,,0.01,weatherlink.com 1.10,2013-02-25 12:50:00,
2013-02-25 07:05:00,42.4,32.0,30.02,East,101,4.0,-999.0,66,-99.99,,,0.01,weatherlink.com 1.10,2013-02-25 13:05:00,
2013-02-25 07:20:00,42.7,32.0,30.03,East,93,4.0,-999.0,65,-99.99,,,0.01,weatherlink.com 1.10,2013-02-25 13:20:00,
2013-02-25 07:35:00,43.6,32.0,30.03,ESE,119,1.0,-999.0,63,-99.99,,,0.01,weatherlink.com 1.10,2013-02-25 13:35:00,
2013-02-25 07:50:00,44.6,31.0,30.02,SE,129,7.0,-999.0,60,-99.99,,,0.01,weatherlink.com 1.10,2013-02-25 13:50:00,
2013-02-25 08:05:00,46.1,31.0,30.02,SE,127,12.0,-999.0,57,-99.99,,,0.01,weatherlink.com 1.10,2013-02-25 14:05:00,
2013-02-25 08:20:00,46.7,32.0,30.02,SE,127,7.0,-999.0,56,-99.99,,,0.01,weatherlink.com 1.10,2013-02-25 14:20:00,
2013-02-25 08:35:00,46.8,32.0,30.03,East,100,7.0,-999.0,56,-99.99,,,0.01,weatherlink.com 1.10,2013-02-25 14:35:00,
2013-02-25 08:50:00,46.9,32.0,30.04,SE,129,7.0,-999.0,57,-99.99,,,0.01,weatherlink.com 1.10,2013-02-25 14:50:00,
2013-02-25 09:05:00,46.8,32.0,30.03,SSE,147,8.0,-999.0,56,-99.99,,,0.01,weatherlink.com 1.10,2013-02-25 15:05:00,
2013-02-25 09:20:00,47.3,33.0,30.02,ESE,115,11.0,-999.0,57,-99.99,,,0.01,weatherlink.com 1.10,2013-02-25 15:20:00,
2013-02-25 09:35:00,47.5,33.0,30.01,SE,143,10.0,-999.0,57,-99.99,,,0.01,weatherlink.com 1.10,2013-02-25 15:35:00,
2013-02-25 09:50:00,47.6,34.0,30.00,SE,128,11.0,-999.0,59,-99.99,,,0.01,weatherlink.com 1.10,2013-02-25 15:50:00,
2013-02-25 10:05:00,48.1,34.0,30.00,SE,128,12.0,-999.0,59,-99.99,,,0.00,weatherlink.com 1.10,2013-02-25 16:05:00,
2013-02-25 10:20:00,48.1,35.0,30.00,SE,142,7.0,-999.0,60,-99.99,,,0.00,weatherlink.com 1.10,2013-02-25 16:20:00,
2013-02-25 10:35:00,49.0,36.0,30.00,SE,135,13.0,-999.0,61,-99.99,,,0.00,weatherlink.com 1.10,2013-02-25 16:35:00,
2013-02-25 10:50:00,50.0,36.0,29.98,ESE,104,8.0,-999.0,60,-99.99,,,0.01,weatherlink.com 1.10,2013-02-25 16:50:00,
2013-02-25 11:05:00,50.8,38.0,29.98,SE,144,11.0,-999.0,61,-99.99,,,0.01,weatherlink.com 1.10,2013-02-25 17:05:00,
2013-02-25 11:21:00,51.0,38.0,29.97,SSE,159,6.0,-999.0,62,-99.99,,,0.01,weatherlink.com 1.10,2013-02-25 17:21:00,
2013-02-25 11:36:00,51.2,38.0,29.97,SE,143,8.0,-999.0,61,-99.99,,,0.01,weatherlink.com 1.10,2013-02-25 17:36:00,
2013-02-25 11:51:00,51.4,39.0,29.96,ESE,120,5.0,-999.0,62,-99.99,,,0.01,weatherlink.com 1.10,2013-02-25 17:51:00,
2013-02-25 12:06:00,51.5,39.0,29.96,SSE,158,9.0,-999.0,63,-99.99,,,0.01,weatherlink.com 1.10,2013-02-25 18:06:00,
2013-02-25 12:21:00,52.6,40.0,29.95,SE,138,17.0,-999.0,62,-99.99,,,0.01,weatherlink.com 1.10,2013-02-25 18:21:00,
2013-02-25 12:36:00,52.6,40.0,29.94,SE,145,10.0,-999.0,62,-99.99,,,0.01,weatherlink.com 1.10,2013-02-25 18:36:00,
2013-02-25 12:51:00,53.4,40.0,29.93,ESE,113,7.0,-999.0,61,-99.99,,,0.01,weatherlink.com 1.10,2013-02-25 18:51:00,
2013-02-25 13:06:00,54.2,40.0,29.93,SE,130,6.0,-999.0,60,-99.99,,,0.01,weatherlink.com 1.10,2013-02-25 19:06:00,
2013-02-25 13:21:00,54.4,41.0,29.92,ESE,115,8.0,-999.0,60,-99.99,,,0.01,weatherlink.com 1.10,2013-02-25 19:21:00,
2013-02-25 13:36:00,54.7,41.0,29.92,SE,126,8.0,-999.0,60,-99.99,,,0.01,weatherlink.com 1.10,2013-02-25 19:36:00,
2013-02-25 13:51:00,54.3,40.0,29.91,SE,132,14.0,-999.0,59,-99.99,,,0.01,weatherlink.com 1.10,2013-02-25 19:51:00,
2013-02-25 14:06:00,54.2,40.0,29.90,SE,136,18.0,-999.0,59,-99.99,,,0.01,weatherlink.com 1.10,2013-02-25 20:06:00,
2013-02-25 14:21:00,54.4,39.0,29.89,SE,137,9.0,-999.0,57,-99.99,,,0.01,weatherlink.com 1.10,2013-02-25 20:21:00,
2013-02-25 14:36:00,54.5,40.0,29.88,SSE,147,11.0,-999.0,58,-99.99,,,0.01,weatherlink.com 1.10,2013-02-25 20:36:00,
2013-02-25 14:51:00,55.4,41.0,29.88,SE,134,8.0,-999.0,58,-99.99,,,0.01,weatherlink.com 1.10,2013-02-25 20:51:00,
2013-02-25 15:06:00,55.9,40.0,29.88,SE,138,8.0,-999.0,56,-99.99,,,0.01,weatherlink.com 1.10,2013-02-25 21:06:00,
2013-02-25 15:21:00,55.4,40.0,29.87,ESE,115,4.0,-999.0,57,-99.99,,,0.01,weatherlink.com 1.10,2013-02-25 21:21:00,
2013-02-25 15:36:00,55.3,41.0,29.87,SE,138,6.0,-999.0,58,-99.99,,,0.01,weatherlink.com 1.10,2013-02-25 21:36:00,
2013-02-25 15:51:00,55.0,41.0,29.87,SE,138,7.0,-999.0,59,-99.99,,,0.01,weatherlink.com 1.10,2013-02-25 21:51:00,
2013-02-25 16:06:00,54.2,41.0,29.85,SE,132,6.0,-999.0,61,-99.99,,,0.01,weatherlink.com 1.10,2013-02-25 22:06:00,
2013-02-25 16:21:00,53.6,41.0,29.85,East,101,8.0,-999.0,63,-99.99,,,0.01,weatherlink.com 1.10,2013-02-25 22:21:00,
2013-02-25 16:36:00,52.8,41.0,29.84,SSE,157,8.0,-999.0,65,-99.99,,,0.01,weatherlink.com 1.10,2013-02-25 22:36:00,
2013-02-25 16:51:00,52.6,42.0,29.84,SE,146,13.0,-999.0,67,-99.99,,,0.01,weatherlink.com 1.10,2013-02-25 22:51:00,
2013-02-25 17:06:00,52.2,42.0,29.83,SE,133,7.0,-999.0,68,-99.99,,,0.01,weatherlink.com 1.10,2013-02-25 23:06:00,
2013-02-25 17:21:00,51.9,42.0,29.84,SE,144,11.0,-999.0,70,-99.99,,,0.01,weatherlink.com 1.10,2013-02-25 23:21:00,
2013-02-25 17:36:00,51.4,42.0,29.86,SSE,153,15.0,-999.0,71,-99.99,,,0.01,weatherlink.com 1.10,2013-02-25 23:36:00,
2013-02-25 17:51:00,50.8,42.0,29.86,SE,142,15.0,-999.0,71,-99.99,,,0.01,weatherlink.com 1.10,2013-02-25 23:51:00,
2013-02-25 18:06:00,50.5,41.0,29.85,SSE,157,11.0,-999.0,71,-99.99,,,0.01,weatherlink.com 1.10,2013-02-26 00:06:00,
2013-02-25 18:21:00,50.1,41.0,29.84,South,171,4.0,-999.0,72,-99.99,,,0.01,weatherlink.com 1.10,2013-02-26 00:21:00,
2013-02-25 18:36:00,49.8,41.0,29.84,SSE,148,8.0,-999.0,72,-99.99,,,0.01,weatherlink.com 1.10,2013-02-26 00:36:00,
2013-02-25 18:51:00,49.5,41.0,29.84,SE,133,8.0,-999.0,73,-99.99,,,0.01,weatherlink.com 1.10,2013-02-26 00:51:00,
2013-02-25 19:06:00,49.3,41.0,29.84,SSE,153,5.0,-999.0,74,-99.99,,,0.01,weatherlink.com 1.10,2013-02-26 01:06:00,
2013-02-25 19:21:00,49.1,41.0,29.84,SE,146,5.0,-999.0,74,-99.99,,,0.01,weatherlink.com 1.10,2013-02-26 01:21:00,
2013-02-25 19:36:00,48.9,41.0,29.84,SE,140,11.0,-999.0,75,-99.99,,,0.01,weatherlink.com 1.10,2013-02-26 01:36:00,
2013-02-25 19:51:00,48.6,41.0,29.82,SE,129,11.0,-999.0,76,-99.99,,,0.01,weatherlink.com 1.10,2013-02-26 01:51:00,
2013-02-25 20:07:00,48.4,42.0,29.80,SE,124,7.0,-999.0,77,-99.99,,,0.01,weatherlink.com 1.10,2013-02-26 02:07:00,
2013-02-25 20:22:00,48.1,42.0,29.79,ESE,119,13.0,-999.0,78,-99.99,,,0.01,weatherlink.com 1.10,2013-02-26 02:22:00,
2013-02-25 20:37:00,48.0,42.0,29.80,SSE,148,8.0,-999.0,79,-99.99,,,0.01,weatherlink.com 1.10,2013-02-26 02:37:00,
2013-02-25 20:52:00,47.8,42.0,29.80,SE,128,9.0,-999.0,79,-99.99,,,0.01,weatherlink.com 1.10,2013-02-26 02:52:00,
2013-02-25 21:07:00,47.6,42.0,29.79,SSE,149,15.0,-999.0,81,-99.99,,,0.01,weatherlink.com 1.10,2013-02-26 03:07:00,
2013-02-25 21:22:00,46.4,43.0,29.78,SE,132,11.0,-999.0,86,-99.99,,,0.01,weatherlink.com 1.10,2013-02-26 03:22:00,
2013-02-25 21:37:00,45.8,43.0,29.79,SE,130,7.0,-999.0,89,-99.99,,,0.01,weatherlink.com 1.10,2013-02-26 03:37:00,
2013-02-25 21:52:00,45.6,43.0,29.80,SSE,154,2.0,-999.0,90,-99.99,,,0.01,weatherlink.com 1.10,2013-02-26 03:52:00,
2013-02-25 22:07:00,45.0,43.0,29.77,SE,143,8.0,-999.0,92,-99.99,,,0.01,weatherlink.com 1.10,2013-02-26 04:07:00,
2013-02-25 22:22:00,44.7,43.0,29.77,SE,135,13.0,-999.0,93,-99.99,,,0.01,weatherlink.com 1.10,2013-02-26 04:22:00,
2013-02-25 22:37:00,44.6,43.0,29.77,SSE,154,8.0,-999.0,94,-99.99,,,0.01,weatherlink.com 1.10,2013-02-26 04:37:00,
2013-02-25 22:52:00,44.7,43.0,29.78,SE,142,11.0,-999.0,94,-99.99,,,0.01,weatherlink.com 1.10,2013-02-26 04:52:00,
2013-02-25 23:07:00,44.6,43.0,29.73,SSE,151,13.0,-999.0,94,-99.99,,,0.01,weatherlink.com 1.10,2013-02-26 05:07:00,
2013-02-25 23:22:00,44.5,43.0,29.70,SE,137,13.0,-999.0,94,-99.99,,,0.01,weatherlink.com 1.10,2013-02-26 05:22:00,
2013-02-25 23:37:00,44.3,43.0,29.58,SE,133,20.0,-999.0,94,-99.99,,,0.01,weatherlink.com 1.10,2013-02-26 05:37:00,
2013-02-25 23:52:00,44.4,43.0,29.64,SE,144,20.0,-999.0,93,-99.99,,,0.01,weatherlink.com 1.10,2013-02-26 05:52:00,